Погода в Кабале

Погода в Кабале : погода сейчас, прогноз погоды и архив. Всё, что Вы хотите узнать о погоде в Кабале!

Поиск расширенной информации на нашем сайте:

Полезная информация: Цветы в шляпных коробках цветы в шляпных коробках. 3

Другие новости

Новости СМИ2

Главная страница сайта

Новости сайта

02.10.2013

Напоминаем, что на нашем новом сайте вы можете получить высокодетализированные прогнозы погоды по пунктам России, СНГ и мира (включающие важные для авиации метеовеличины, такие как направление и скорость ветра, видимость, явления погоды, количество и форма облачности, нижняя и верхняя граница облачности), а также ознакомиться с разнообразными материалами по авиационной метеорологии и подборкой полезных ссылок на эту тему.

Сайт Метеоцентр.Азия посвящён разработке технологий оптимизации авиаметеорологического обслуживания, включая проектирование и перспективное создание нескольких автоматизированных авиаметеорологических систем:
- система выпуска высокодетальных прогностических карт явлений погоды для нижнего воздушного пространства по России и ближнему зарубежью;
- система верификации прогнозов TAF (выпускаемых синоптиками официальных АМСГ РФ и ближнего зарубежья) и AUTOTAF (выпускаемых сайтом Метеоцентр.Азия) - выявление ошибок, онлайн-сопоставление с фактической погодой METAR, автоматическое внесение коррективов в прогнозы при резком отклонении фактической погоды от прогноза, подсчёт оправдываемости прогнозов по элементам и в целом;
- система обработки, анализа и отображения авиаметеорологической информации для применения провайдерами метеорологической информации.

Рекомендуем: У нас товары для похудения приобрести реально выгодно!

Погода в Кабале - сегодня

Время (UTC), дата Ветер
(°,м/с) 
Видим.   Явления Облачность Т
(°С)
Тd
(°С)
f(%) Тe
(°С)
Pmin
(гПа)
dP
(гПа)
Po
(мм)
O2
(г/м3)
Тmin Tmax R s Состояние
почвы
12 24.06.17 270 (З) 20000 м    4/4 1000 м 
[Sc]
+25.1 +16.9 60 +39  1011  -1.8  702  255           
15 24.06.17 270 (З) 20000 м    3/3 1000 м 
[Sc]
+25.8 +16.6 57 +39  1009.8  -1  701  255           
18 24.06.17 050 (СВ) 20000 м    ясно 
+20.4 +13.6 65 +28  1012  0.4  702  260    +26.5       
21 24.06.17 050 (СВ) 20000 м    ясно 
+19.3 +14.7 75 +30  1013.1  702  261           
00 25.06.17 050 (СВ) 20000 м    ясно 
+18.8 +13.3 70 +28  1011.8  -1.3  701  262           
03 25.06.17 020 (С) 20000 м    ясно 
+19.9 +13.2 65 +28  1012.3  0.7  702  261           
06 25.06.17 230 (ЮЗ) 20000 м    ясно 
+22.5 +16.9 71 +37  1011.2  -0.3  702  257           
09 25.06.17 270 (З) 20000 м    3/3 1000 м 
[Cu med, cong]
+25.7 +16.7 58 +40  1010.7  0.3  702  255           
12 25.06.17 250 (З) 20000 м    3/3 1000 м 
[Cu med, cong]
+28.5 +17.4 51 +44  1009.1  -0.8  701  252           
15 25.06.17 250 (З) 20000 м    3/3 1000 м 
[Cu med, cong]
+28 +16.9 51 +42  1009.3  0.1  701  253           
21 25.06.17 360 (С) 20000 м    ясно 
+20.6 +12.8 61 +27  1015.9  2.6  705  261           
00 26.06.17 360 (С) 20000 м    4/4 1000 м 
[Sc]
+20.6 +15.4 72 +32  1016.5  0.6  705  261           
03 26.06.17 270 (З) 20000 м    6/6 1000 м 
[Sc]
+19.9 +16.6 81 +34  1017.8  1.1  706  261           
06 26.06.17 270 (З) 10 км    10/10 600 м 
[Sc]
+20.6 +16.9 79 +35  1018.9  1.2  707  261           
09 26.06.17 180 (Ю) 10 км    8/8 600 м 
[Sc]
+23 +18.4 75 +40  1018.2  707  258           
12 26.06.17 180 (Ю) 10 км    6/6 600 м 
[Sc]
+26.8 +20.9 70 +50  1015.9  -1.2  706  254           
15 26.06.17 180 (Ю) 10 км    8/6 600 м 
[Sc]
+24 +20.3 80 +46  1016.6  706  256           
18 26.06.17 180 (Ю) 4000 м    10/10 600 м 
[Sc]
+22.4 +17.7 75 +38  1017.7  0.5  706  259    +28       
21 26.06.17 090 (В) 4000 м    8/8 600 м 
[Sc]
+19.9 +17.3 85 +36  1019.3  0.9  707  262           
00 27.06.17 230 (ЮЗ) 20000 м    ясно 
+17.2 +14.8 86 +28  1018.4  -1.6  706  264           
03 27.06.17 090 (В) 20000 м    ясно 
+17.1 +14.5 85 +27  1018  -0.4  705  264           
06 27.06.17 180 (Ю) 20000 м    3/3 1000 м 
[Cu med, cong]
+21.8 +16.4 71 +35  1016.8  0.1  706  260           
09 27.06.17 230 (ЮЗ) 20000 м    3/3 1000 м 
[Cu med, cong]
+23.4 +17.3 69 +38  1014.6  -1.2  705  258           
12 27.06.17 180 (Ю) 20000 м    3/3 1000 м 
[Cu med, cong]
+27.4 +19.2 61 +47  1011.4  -2.4  703  253           
15 27.06.17 200 (Ю) 20000 м    6/6 1000 м 
[Sc]
+26.8 +20.4 68 +49  1011.2  -0.2  703  253           
Время (UTC), дата Ветер
(°,м/с) 
Видим.   Явления Облачность Т
(°С)
Тd
(°С)
f(%) Тe
(°С)
Pmin
(гПа)
dP
(гПа)
Po
(мм)
O2
(г/м3)
Тmin Tmax R s Состояние
почвы

Для получения пояснительной информации подведите курсор к названию столбца.

ПОГОДА в Кабале - архив

Всё, что Вы хотите узнать о погоде в Кабале - удобно и подробно!

Выберите нужную дату (начиная с 1 января 2015* года) и нажмите кнопку "Найти".
Будут отображены архивные сводки погоды по пункту Кабала, начиная с указанной даты.


Отображать данные в формате CSV (для использования в таблицах Excel)


Внимание! Наш архив погоды предназначен исключительно для личного некоммерческого использования в познавательных целях. Если Вам необходимы официальные справки о состоянии погоды (для производственных, юридических, коммерческих и т.п. целей), обращайтесь в органы Росгидромета.

*Примечание: данная дата относится к архиву по метеостанциям СССР (Россия, СНГ, Балтия).
Архив по метеостанциям Зарубежной Европы и Азии (кроме Китая) хранится 10 дней, по другим регионам земного шара (Китай, Африка, Америка, Австралия, Океания) - 1 день.

Кабала - район местоположения метеостанции


Название, широта, долгота, высота метеостанции:
Кабала 41°ш. 47.9°д. 682 м над ур. моря [Азербайджан]

Дополнительная информация

В oтличие oт бoльшинства пoгoдных сайтoв мы публикуем пoдрoбную метеoинфoрмацию в детальнoм прoфессиoнальнoм фoрмате.

Характеристики температуры и влажнoсти вoздуха измеряются на высoте 2 м в тени вдали oт зданий и деревьев.
Скoрoсть ветра измеряется на высoте 10 м (на урoвне рoста челoвека скoрoсть ветра ниже в 1.5-2 раза). Если метеoстанция нахoдится в гoрoде или в лесу, тo скoрoсть ветра занижена на 2-4 м/с пo сравнению с oткрытым местoм. Скoрoсть ветра над акватoриями крупных рек и oзёр, а также на вершинах хoлмoв на 2-5 м/с выше, чем в oбычных услoвиях.
Атмoсфернoе давление в разных тoчках местнoсти мoжет значительнo oтличаться oт давления на метеoстанции, в зависимoсти oт услoвий рельефа (при пoдъёме на 10 м давление пoнижается примернo на 1 мм рт.ст.).